Theta_e
317 319 320 321 321 321 322 322 323 323 323 324 323 323 322 322 323 324 324 324 324 324 324 323 323 323 322 322 322 322 322 323 322 322 322 323 323 323 323 323 323 322
316 317 318 319 319 319 320 321 322 323 323 323 323 323 322 322 323 323 324 324 324 324 324 325 325 325 324 324 324 323 323 323 323 323 323 323 323 323 323 323 323 324
315 315 316 317 317 317 318 320 322 322 322 322 322 322 322 322 322 323 323 323 323 323 324 325 325 326 326 325 325 325 324 324 324 323 323 323 323 323 323 322 323 323
317 316 315 315 315 316 317 318 320 321 321 322 322 321 321 321 321 321 322 323 323 323 324 324 325 326 326 326 326 326 326 325 325 325 324 324 324 323 323 323 323 324
318 318 317 315 314 314 315 316 317 317 319 320 321 321 321 321 320 320 321 322 322 323 324 325 325 326 326 327 327 327 326 326 326 325 325 325 324 324 324 324 324 324
316 318 318 317 316 314 314 315 315 316 317 318 319 320 321 320 320 320 321 321 322 323 324 325 326 326 327 327 327 327 327 327 326 326 326 325 325 325 325 325 325 325
312 315 317 318 318 316 315 315 315 316 317 317 318 319 319 320 320 320 321 322 322 323 324 324 325 326 326 327 327 327 327 327 327 326 326 326 326 325 325 325 325 324
310 311 314 317 318 318 316 314 314 315 316 316 316 317 317 318 319 320 321 322 322 323 323 323 324 324 325 326 327 327 327 327 327 327 327 326 326 326 325 325 325 325
310 310 312 315 317 318 318 316 313 312 313 313 314 314 314 315 317 318 320 321 321 322 322 322 323 323 324 325 326 326 326 326 326 326 326 326 326 326 325 325 325 325
310 310 310 313 316 318 318 318 315 312 312 312 312 312 312 312 313 314 316 317 319 319 320 321 321 322 323 324 324 325 325 325 325 325 325 325 325 325 325 325 325 325
310 310 311 312 314 316 318 318 317 315 313 312 312 312 312 311 311 311 312 313 314 315 316 318 318 320 321 322 323 323 323 323 323 324 324 324 324 324 324 324 324 324
311 312 313 313 314 316 317 318 318 318 317 316 314 313 313 312 311 311 310 311 311 312 313 314 316 318 319 320 320 321 322 322 323 324 324 324 324 324 323 323 323 323
314 315 315 315 316 317 317 317 317 318 318 318 317 316 314 313 312 311 310 310 310 310 311 312 313 315 316 317 317 318 320 321 323 323 323 323 323 323 323 323 322 322
315 315 315 316 316 317 317 317 317 318 318 318 318 318 316 314 312 310 310 310 309 310 310 311 311 313 313 313 314 316 318 321 322 323 323 323 323 322 322 322 322 322
314 313 314 315 316 316 316 317 317 317 317 317 318 318 317 315 312 310 310 310 310 310 310 310 310 311 311 311 313 314 316 318 320 321 322 322 322 322 322 322 321 320
312 312 312 313 314 315 315 316 316 317 317 317 317 318 318 317 314 311 309 309 309 310 310 310 310 310 310 311 312 313 313 315 317 319 320 320 321 321 321 320 320 319
312 312 312 312 313 314 314 314 315 316 317 317 317 317 317 317 317 315 312 310 309 309 309 310 310 310 311 311 311 311 312 312 314 317 318 319 319 319 319 319 319 319
312 312 312 312 312 312 313 313 313 314 315 316 317 317 317 317 316 316 316 314 312 311 310 309 309 309 310 310 311 311 311 311 312 314 316 317 317 316 316 317 317 318
311 312 312 312 312 312 312 312 312 312 313 314 314 315 316 316 316 316 316 316 315 315 314 313 312 310 309 309 309 309 310 310 310 311 312 313 313 313 314 315 315 316
311 311 312 312 312 312 312 312 312 312 312 312 313 313 314 315 315 316 316 316 316 315 315 315 315 314 312 310 309 308 308 308 309 309 310 310 311 313 314 315 315 315
310 311 311 311 312 312 312 312 312 312 312 311 312 312 312 312 313 314 314 315 316 316 316 316 316 315 314 313 311 309 308 307 308 308 309 308 309 311 312 313 313 314
310 310 310 310 311 311 311 312 312 312 311 311 311 311 311 312 312 312 312 312 313 314 314 316 316 315 315 315 314 312 310 308 308 308 308 309 308 309 309 309 311 312
309 310 310 310 310 310 310 310 310 311 310 310 311 311 311 312 311 311 312 311 312 311 312 313 314 314 314 314 314 314 313 312 310 309 308 309 309 309 308 308 309 310
308 308 308 309 309 309 309 308 309 309 309 309 310 310 310 311 311 311 312 311 311 311 311 311 311 311 311 311 312 313 313 313 313 312 311 310 309 309 308 308 308 308
308 307 307 307 308 307 307 306 306 307 307 308 308 309 309 310 310 311 311 311 311 311 311 311 311 311 310 310 311 311 311 312 312 312 313 313 311 309 309 309 309 308
307 307 307 307 307 306 306 305 305 305 305 305 306 307 308 308 309 309 310 310 311 311 311 311 311 310 310 309 310 310 310 311 311 311 313 313 311 310 309 309 309 309
Wind_Speed
25 27 30 31 32 32 32 34 36 38 40 41 42 42 41 40 40 40 41 41 41 42 41 42 42 42 42 42 43 44 45 46 46 45 46 47 47 46 46 46 45 46
21 23 26 28 30 30 31 32 34 35 37 39 40 41 41 40 39 40 40 40 41 41 41 42 42 42 42 42 43 44 45 46 46 46 46 48 48 48 48 47 47 47
17 20 23 26 27 29 30 32 33 34 35 36 38 39 39 38 37 38 39 40 40 41 41 42 42 42 42 42 42 44 45 46 46 45 46 48 48 49 49 48 48 48
16 16 19 22 25 27 29 31 33 33 34 35 35 35 36 36 36 38 39 40 41 41 41 42 42 42 42 42 42 44 45 46 46 45 47 49 49 50 50 49 50 50
18 18 18 18 20 23 26 29 31 31 31 32 32 32 34 35 36 38 39 39 40 41 41 42 42 42 42 42 43 44 45 46 46 46 47 49 50 51 51 50 51 51
19 19 19 19 19 20 23 26 27 28 29 29 30 31 32 33 35 37 38 39 40 41 42 42 43 43 43 43 43 44 45 46 46 46 48 49 50 51 51 51 51 52
21 20 20 20 20 20 21 22 24 25 27 28 29 30 31 32 34 35 37 38 39 40 41 42 43 43 43 44 44 45 45 46 46 47 48 49 49 50 51 51 52 52
25 22 21 21 22 22 21 21 21 22 24 26 28 29 30 31 33 34 35 36 37 38 39 40 41 42 43 44 45 45 45 46 46 47 48 49 49 51 51 51 52 53
28 26 23 22 22 23 23 22 20 20 20 23 25 26 27 29 30 30 31 33 34 35 36 37 38 40 41 43 44 44 45 45 46 47 48 49 50 51 51 51 52 53
29 28 25 24 23 23 23 23 22 20 19 20 21 23 24 25 26 27 28 29 31 32 33 34 36 37 38 40 42 42 44 44 45 46 47 48 49 50 50 50 51 52
30 29 27 25 24 24 24 23 22 21 21 21 20 21 23 23 24 25 25 27 28 29 31 32 33 34 36 38 39 40 42 43 43 45 45 46 48 48 49 49 50 51
29 27 26 26 25 26 25 24 23 22 22 22 21 21 22 23 25 25 25 26 26 27 28 30 31 33 34 36 37 38 40 42 43 44 44 45 46 47 48 48 49 49
26 25 25 25 25 25 26 25 25 24 24 24 23 23 23 23 24 25 25 25 25 26 27 28 30 32 33 34 36 37 39 41 42 43 44 44 45 46 47 48 48 48
25 25 24 23 23 24 24 24 24 24 25 25 25 26 25 24 24 25 26 26 25 26 26 27 29 30 31 33 34 36 38 40 42 43 44 45 45 46 46 47 48 48
28 27 27 25 24 24 23 23 23 24 25 25 26 26 27 27 26 26 27 27 26 26 27 28 29 30 30 31 33 35 37 39 41 42 43 44 45 46 46 47 48 47
30 30 29 28 26 25 24 25 25 25 25 25 25 25 26 27 27 28 28 29 29 29 29 30 30 30 31 32 33 34 36 38 39 41 42 43 44 45 46 47 48 47
33 33 32 29 27 26 25 25 26 26 26 26 26 26 26 26 27 28 29 29 31 32 32 33 32 32 32 33 33 34 36 37 39 40 41 42 44 45 46 47 47 46
32 32 30 29 27 26 26 25 26 26 27 27 27 27 27 28 28 29 29 29 30 31 33 34 34 34 35 35 35 36 37 38 39 40 42 43 44 45 46 46 46 45
28 27 26 25 25 26 25 25 25 26 26 27 28 28 29 29 29 30 30 29 30 31 32 33 33 33 34 35 37 38 39 39 40 40 41 42 43 44 44 44 44 44
24 24 24 24 24 24 24 25 25 25 25 25 26 28 29 30 30 31 31 31 31 32 33 33 33 31 31 32 35 37 39 39 40 40 41 42 42 43 44 44 44 44
23 23 23 23 23 23 23 24 24 25 25 25 25 27 28 28 29 30 31 32 32 33 34 35 34 32 30 30 32 34 36 38 39 40 41 42 43 43 44 45 45 45
25 25 24 24 23 23 23 23 24 24 25 25 26 27 27 28 29 29 30 31 32 33 34 36 36 34 32 32 32 32 33 35 37 38 40 42 43 42 42 43 44 45
26 27 27 26 25 25 24 24 24 24 25 25 26 27 28 29 29 30 30 31 31 31 32 34 35 34 33 33 33 33 33 34 35 36 38 41 42 42 42 42 42 43
27 27 28 27 27 26 26 25 25 25 25 26 27 27 28 28 29 29 30 30 30 30 30 32 33 32 31 31 31 32 32 33 34 34 37 40 41 41 41 41 42 42
28 27 27 27 26 26 25 25 25 25 25 26 27 28 29 29 29 29 29 28 28 29 28 29 30 29 28 27 27 28 29 30 31 32 34 37 38 38 40 40 41 42
27 27 27 26 26 26 26 25 25 25 25 25 26 28 29 30 30 30 29 29 28 27 27 27 27 27 25 25 24 24 25 26 28 30 32 33 33 34 37 38 38 39
Wind_Direction
269 268 268 268 269 270 271 271 270 269 269 269 269 270 271 274 275 274 274 274 273 271 270 269 268 267 266 265 263 261 259 259 259 260 260 259 259 260 260 260 260 259
276 272 271 271 271 272 273 272 272 271 271 270 270 270 271 271 272 272 273 273 274 273 272 271 269 267 266 265 264 262 260 259 259 259 259 259 259 259 260 261 261 260
297 284 277 275 275 276 276 276 275 273 273 272 271 270 270 269 268 269 270 271 272 272 272 271 269 268 266 265 264 263 262 261 260 260 260 259 259 259 260 261 261 260
331 313 296 286 281 278 277 277 276 275 275 274 272 271 269 268 267 267 268 270 270 271 271 270 269 268 267 266 264 263 262 262 262 262 260 259 259 259 259 260 260 259
335 330 323 310 296 286 280 276 275 276 276 276 275 274 271 268 267 267 268 269 269 270 270 269 269 268 267 266 264 263 263 263 263 262 260 260 259 258 258 258 258 259
331 326 325 322 313 301 290 284 280 277 276 275 275 275 273 271 270 269 269 270 270 269 269 269 269 268 267 266 265 264 264 264 264 262 261 261 261 260 259 258 258 259
332 325 320 318 317 311 301 295 291 284 279 277 276 275 275 274 274 273 272 271 270 269 268 268 268 268 267 266 265 265 265 264 264 263 262 262 262 261 260 259 259 259
329 327 320 314 314 313 307 299 292 289 287 283 281 280 278 276 276 275 275 273 271 269 268 267 267 267 267 266 265 265 265 265 265 264 263 263 262 262 261 260 260 259
322 325 322 314 311 310 310 304 293 287 287 286 286 286 283 280 278 276 275 273 271 269 267 266 265 265 265 265 265 265 266 265 265 265 264 264 263 263 262 261 260 260
317 319 319 315 311 307 307 308 302 291 284 285 288 289 288 286 283 279 275 273 271 269 268 266 265 264 264 264 264 264 265 265 265 265 264 264 264 264 264 262 261 261
316 317 316 314 311 307 304 304 304 299 292 287 286 288 289 288 286 283 279 275 273 272 271 269 267 266 264 264 264 264 265 265 265 265 265 265 265 265 265 264 263 263
320 320 318 316 314 311 306 301 299 299 297 293 289 286 284 284 284 282 280 278 277 276 274 272 271 269 266 265 265 264 264 264 264 264 264 264 264 264 264 264 264 264
323 321 319 318 316 313 310 305 300 296 294 294 292 286 282 280 280 280 279 278 277 277 275 274 272 270 268 268 266 265 264 264 263 264 264 265 265 265 264 264 264 264
320 318 314 311 308 306 305 303 300 295 291 289 288 287 285 281 277 275 275 274 274 276 276 275 272 270 271 270 268 267 266 265 265 265 266 266 266 266 265 265 265 265
317 316 312 306 301 299 298 295 293 291 290 287 286 286 287 286 281 274 270 268 269 272 273 273 273 272 272 270 270 270 269 267 266 265 265 266 266 266 265 265 265 266
316 316 313 307 302 298 295 291 288 286 286 286 286 285 284 285 284 280 273 269 267 267 267 268 269 272 273 271 271 272 271 270 268 265 265 265 264 264 265 265 266 266
314 315 313 310 305 300 295 290 287 285 284 284 284 284 282 280 281 281 280 277 274 271 269 267 266 267 270 271 272 272 272 272 270 268 266 265 264 264 264 266 267 268
312 312 311 309 306 303 298 294 290 287 286 284 282 282 281 279 279 280 280 281 280 279 276 273 271 269 269 270 271 271 271 271 269 267 266 265 264 264 264 264 265 266
307 305 304 303 304 304 302 301 299 295 292 289 286 283 281 280 280 280 280 280 280 280 280 279 278 277 275 273 272 271 271 271 270 268 266 267 267 266 266 266 265 266
303 300 299 298 299 301 302 303 304 303 300 295 291 288 285 283 281 280 279 279 279 279 279 279 279 280 279 276 274 271 271 271 272 272 271 270 269 267 267 268 267 266
305 303 302 300 298 298 299 300 301 302 302 300 297 294 291 289 286 284 282 281 280 281 280 280 280 282 281 279 277 274 270 268 268 269 270 271 270 267 265 266 266 266
309 308 308 307 305 302 300 299 299 298 298 298 297 296 295 293 291 289 286 284 283 283 283 282 283 285 286 284 284 282 279 274 270 268 269 270 271 270 267 266 266 265
314 313 313 313 313 311 308 307 305 303 303 302 299 297 296 295 294 292 291 290 289 288 288 286 286 289 291 289 289 289 289 286 283 279 276 274 273 272 270 268 267 264
318 318 318 317 318 318 318 318 317 315 314 313 309 305 301 299 298 295 294 295 295 294 294 292 290 292 295 293 292 292 291 290 290 289 286 283 281 280 278 275 273 270
315 317 319 320 320 322 324 326 327 326 323 322 319 316 311 308 305 301 297 297 298 298 298 298 296 297 299 298 296 295 293 290 289 288 287 287 286 286 285 283 281 278
309 311 313 316 318 320 324 328 331 331 330 329 327 324 320 317 315 311 306 303 303 302 301 302 302 303 305 304 301 298 296 292 287 285 284 285 286 284 284 283 281 280